IT9NKT-WX Weather Reports


Display with metric or nautical units.
time (UTC)temp
F
wind
direction
speed
MPH
gust
MPH
rain 1hr
in
rain 24hr
in
rain mn
in
humidity
%
barometer
mb
20260506135003 67 109 3.0 10.0 0.00 0.00 0.00 78 1016.4
20260506134503 67 96 3.0 9.0 0.00 0.00 0.00 77 1016.1
20260506134004 66 94 3.0 8.0 0.00 0.00 0.00 78 1016.2
20260506133504 65 94 4.0 11.0 0.00 0.00 0.00 80 1016.3
20260506133214 65 98 3.0 11.0 0.00 0.00 0.00 80 1016.2
20260506132717 66 106 3.0 10.0 0.00 0.00 0.00 79 1016.4
20260506132003 67 90 2.0 8.0 0.00 0.00 0.00 78 1016.3
20260506131503 66 85 3.0 10.0 0.00 0.00 0.00 78 1016.5
20260506131003 67 89 3.0 10.0 0.00 0.00 0.00 78 1016.7
20260506130503 67 108 3.0 7.0 0.00 0.00 0.00 77 1016.3
20260506130004 68 96 3.0 11.0 0.00 0.00 0.00 76 1016.4
20260506125503 67 92 3.0 11.0 0.00 0.00 0.00 78 1016.4
20260506125003 66 103 3.0 10.0 0.00 0.00 0.00 79 1016.6
20260506124503 67 92 3.0 10.0 0.00 0.00 0.00 78 1016.4
20260506124003 66 78 3.0 11.0 0.00 0.00 0.00 78 1016.2
20260506123503 66 83 3.0 11.0 0.00 0.00 0.00 78 1016.2
20260506123003 66 103 3.0 9.0 0.00 0.00 0.00 79 1016.6
20260506122503 67 110 4.0 8.0 0.00 0.00 0.00 77 1016.4
20260506122003 66 102 4.0 9.0 0.00 0.00 0.00 79 1016.6
20260506121504 66 94 3.0 9.0 0.00 0.00 0.00 80 1017.0
20260506121216 67 88 2.0 6.0 0.00 0.00 0.00 78 1016.8
20260506120504 66 91 3.0 13.0 0.00 0.00 0.00 79 1016.8
20260506120004 67 106 3.0 9.0 0.00 0.00 0.00 78 1016.6
20260506115503 66 91 3.0 7.0 0.00 0.00 0.00 77 1016.8
20260506115003 66 76 3.0 10.0 0.00 0.00 0.00 78 1016.8
20260506114716 67 89 3.0 10.0 0.00 0.00 0.00 77 1016.8
20260506114004 68 105 3.0 9.0 0.00 0.00 0.00 74 1016.8
20260506113717 67 109 3.0 10.0 0.00 0.00 0.00 76 1016.9
20260506113004 68 105 3.0 10.0 0.00 0.00 0.00 72 1016.9
20260506112503 67 98 3.0 9.0 0.00 0.00 0.00 70 1017.0
20260506112003 68 83 3.0 9.0 0.00 0.00 0.00 75 1016.9
20260506111504 67 93 4.0 7.0 0.00 0.00 0.00 74 1017.0
20260506111217 67 109 5.0 11.0 0.00 0.00 0.00 75 1017.0
20260506110715 67 119 4.0 11.0 0.00 0.00 0.00 75 1016.8
20260506110004 67 91 3.0 10.0 0.00 0.00 0.00 76 1017.0
20260506105504 68 92 2.0 6.0 0.00 0.00 0.00 75 1016.8
20260506105214 67 102 3.0 10.0 0.00 0.00 0.00 75 1016.8
20260506104504 67 128 3.0 10.0 0.00 0.00 0.00 73 1016.8
20260506104004 68 140 3.0 9.0 0.00 0.00 0.00 74 1016.9
20260506103503 68 122 3.0 9.0 0.00 0.00 0.00 75 1017.0
20260506103003 67 104 2.0 9.0 0.00 0.00 0.00 72 1017.0
20260506102503 69 122 3.0 7.0 0.00 0.00 0.00 69 1017.0
20260506102004 68 128 3.0 9.0 0.00 0.00 0.00 71 1017.2
20260506101504 68 128 3.0 9.0 0.00 0.00 0.00 70 1017.3
20260506101004 68 138 2.0 9.0 0.00 0.00 0.00 71 1017.2
20260506100503 67 144 2.0 9.0 0.00 0.00 0.00 72 1017.3
20260506100214 68 136 3.0 9.0 0.00 0.00 0.00 73 1017.0
20260506095503 68 111 2.0 6.0 0.00 0.00 0.00 71 1017.0
20260506095003 67 115 3.0 8.0 0.00 0.00 0.00 73 1017.1
20260506094503 68 124 3.0 8.0 0.00 0.00 0.00 73 1017.2
20260506094003 69 142 2.0 8.0 0.00 0.00 0.00 71 1017.5
20260506093504 68 131 2.0 8.0 0.00 0.00 0.00 71 1017.3
20260506093216 67 110 2.0 7.0 0.00 0.00 0.00 72 1017.4
20260506092504 68 106 1.0 7.0 0.00 0.00 0.00 73 1017.1
20260506092217 67 126 1.0 6.0 0.00 0.00 0.00 74 1017.4
20260506091503 66 124 1.0 6.0 0.00 0.00 0.00 74 1017.4
20260506091004 66 122 1.0 4.0 0.00 0.00 0.00 74 1017.5
20260506090503 66 123 1.0 4.0 0.00 0.00 0.00 74 1017.3
20260506090003 66 136 1.0 4.0 0.00 0.00 0.00 74 1017.5
20260506085503 66 140 1.0 3.0 0.00 0.00 0.00 74 1017.5
20260506085003 67 99 1.0 6.0 0.00 0.00 0.00 73 1017.3
20260506084503 66 101 1.0 6.0 0.00 0.00 0.00 73 1017.2
20260506084004 68 123 1.0 6.0 0.00 0.00 0.00 72 1017.0
20260506083504 67 119 2.0 6.0 0.00 0.00 0.00 73 1017.3
20260506083004 67 127 2.0 5.0 0.00 0.00 0.00 74 1017.1
20260506082503 68 130 2.0 6.0 0.00 0.00 0.00 72 1016.8
20260506082003 68 125 1.0 6.0 0.00 0.00 0.00 72 1016.9
20260506081504 68 122 1.0 7.0 0.00 0.00 0.00 73 1016.8
20260506081004 68 122 1.0 7.0 0.00 0.00 0.00 73 1016.9
20260506080504 68 116 2.0 4.0 0.00 0.00 0.00 72 1016.7
20260506073503 69 178 1.0 4.0 0.00 0.00 0.00 71 1016.8
20260506073003 68 149 1.0 3.0 0.00 0.00 0.00 72 1016.9
20260506072716 67 135 1.0 3.0 0.00 0.00 0.00 73 1016.7
20260506072004 67 173 1.0 4.0 0.00 0.00 0.00 74 1016.9
20260506071503 69 185 1.0 4.0 0.00 0.00 0.00 70 1016.8
20260506071004 70 171 0.0 2.0 0.00 0.00 0.00 69 1016.9
20260506070712 69 168 0.0 1.0 0.00 0.00 0.00 69 1016.8
20260506062504 64 182 0.0 1.0 0.00 0.00 0.00 84 1017.4
20260506062003 62 261 0.0 2.0 0.00 0.00 0.00 86 1017.2
20260506061503 62 241 0.0 2.0 0.00 0.00 0.00 86 1017.2
20260506061215 62 209 0.0 2.0 0.00 0.00 0.00 87 1017.3
20260506060504 62 183 0.0 2.0 0.00 0.00 0.00 87 1017.4
20260506051003 61 0 0.0 0.0 0.00 0.00 0.00 87 1016.6
20260506050503 61 195 0.0 1.0 0.00 0.00 0.00 87 1016.5
20260506050217 61 195 0.0 1.0 0.00 0.00 0.00 87 1016.4
20260506044716 61 0 0.0 0.0 0.00 0.00 0.00 87 1016.4
20260506044004 61 0 0.0 0.0 0.00 0.00 0.00 87 1016.5
20260506043504 61 0 0.0 0.0 0.00 0.00 0.00 87 1016.5
20260506043003 61 0 0.0 0.0 0.00 0.00 0.00 87 1016.4
20260506042504 61 0 0.0 0.0 0.00 0.00 0.00 87 1016.4
20260506042003 61 0 0.0 0.0 0.00 0.00 0.00 87 1016.5
20260506041503 61 0 0.0 0.0 0.00 0.00 0.00 87 1016.4
20260506041004 61 0 0.0 0.0 0.00 0.00 0.00 86 1016.4
20260506040504 61 0 0.0 0.0 0.00 0.00 0.00 86 1016.3
20260506040004 61 186 0.0 1.0 0.00 0.00 0.00 86 1016.4
20260506035503 61 186 0.0 1.0 0.00 0.00 0.00 86 1016.3
20260506035004 61 155 0.0 1.0 0.00 0.00 0.00 86 1016.3
20260506034503 61 155 0.0 1.0 0.00 0.00 0.00 85 1016.1
20260506034004 61 178 0.0 1.0 0.00 0.00 0.00 85 1016.3
20260506033503 61 178 0.0 1.0 0.00 0.00 0.00 85 1016.4
20260506033215 61 178 0.0 1.0 0.00 0.00 0.00 85 1016.2
20260506032503 61 0 0.0 0.0 0.00 0.00 0.00 85 1016.3
20260506032003 61 0 0.0 0.0 0.00 0.00 0.00 85 1016.2
20260506031504 61 181 0.0 1.0 0.00 0.00 0.00 85 1016.3
20260506031004 61 184 0.0 1.0 0.00 0.00 0.00 84 1016.4
20260506030504 61 185 0.0 1.0 0.00 0.00 0.00 84 1016.5
20260506030003 61 195 0.0 1.0 0.00 0.00 0.00 84 1016.5
20260506025504 61 187 0.0 1.0 0.00 0.00 0.00 84 1016.5
20260506025214 61 183 0.0 1.0 0.00 0.00 0.00 84 1016.4
20260506024504 61 0 0.0 0.0 0.00 0.00 0.00 84 1016.5
20260506024215 61 0 0.0 0.0 0.00 0.00 0.00 84 1016.4
20260506023504 61 0 0.0 0.0 0.00 0.00 0.00 84 1016.4
20260506023003 61 0 0.0 0.0 0.00 0.00 0.00 84 1016.4
20260506022503 61 0 0.0 0.0 0.00 0.00 0.00 83 1016.5
20260506022003 61 0 0.0 0.0 0.00 0.00 0.00 83 1016.5
20260506021503 61 0 0.0 0.0 0.00 0.00 0.00 82 1016.6
20260506021003 61 0 0.0 0.0 0.00 0.00 0.00 82 1016.5
20260506020503 61 0 0.0 0.0 0.00 0.00 0.00 82 1016.2
20260506020004 61 236 0.0 1.0 0.00 0.00 0.00 82 1016.3
20260506015504 61 236 0.0 1.0 0.00 0.00 0.00 82 1016.3
20260506015003 61 0 0.0 0.0 0.00 0.00 0.00 81 1016.3
20260506014503 61 204 0.0 1.0 0.00 0.00 0.00 81 1016.3
20260506014004 62 204 0.0 1.0 0.00 0.00 0.00 81 1016.5
20260506013713 62 204 0.0 1.0 0.00 0.00 0.00 81 1016.5
20260506013216 61 225 0.0 0.0 0.00 0.00 0.00 82 1016.5
20260506012504 61 221 0.0 0.0 0.00 0.00 0.00 82 1016.5
20260506012004 61 214 0.0 1.0 0.00 0.00 0.00 82 1016.4
20260506011504 61 213 0.0 1.0 0.00 0.00 0.00 82 1016.5
20260506011213 61 0 0.0 0.0 0.00 0.00 0.00 83 1016.6
20260506010503 62 219 0.0 1.0 0.00 0.00 0.00 83 1016.5
20260506010003 62 0 0.0 0.0 0.00 0.00 0.00 83 1016.6
20260506005504 62 0 0.0 0.0 0.00 0.00 0.00 83 1016.7
20260506005004 62 0 0.0 0.0 0.00 0.00 0.00 83 1016.7
20260506004504 62 0 0.0 0.0 0.00 0.00 0.00 82 1016.7
20260506004004 62 0 0.0 0.0 0.00 0.00 0.00 83 1016.7
20260506003714 62 0 0.0 0.0 0.00 0.00 0.00 83 1016.8
20260506003003 62 141 0.0 1.0 0.00 0.00 0.00 83 1016.6
20260506002715 62 141 0.0 1.0 0.00 0.00 0.00 83 1016.6
20260506002004 62 0 0.0 0.0 0.00 0.00 0.00 83 1016.9
20260506001503 62 0 0.0 0.0 0.00 0.00 0.00 83 1017.0
20260506001003 62 0 0.0 0.0 0.00 0.00 0.00 83 1017.2
20260506000503 62 0 0.0 0.0 0.00 0.00 0.00 83 1017.1
20260506000004 62 0 0.0 0.0 0.00 0.00 0.00 83 1017.2
20260505235503 62 0 0.0 0.0 0.00 0.00 0.00 83 1017.3
20260505235004 62 0 0.0 0.0 0.00 0.00 0.00 83 1017.1
20260505234504 62 0 0.0 0.0 0.00 0.00 0.00 83 1017.5
20260505234004 62 0 0.0 0.0 0.00 0.00 0.00 83 1017.6
20260505233504 62 0 0.0 0.0 0.00 0.00 0.00 83 1017.4
20260505233003 62 0 0.0 0.0 0.00 0.00 0.00 83 1017.4
20260505232503 62 0 0.0 0.0 0.00 0.00 0.00 83 1017.4
20260505232004 62 181 0.0 1.0 0.00 0.00 0.00 83 1017.4
20260505231717 62 181 0.0 1.0 0.00 0.00 0.00 83 1017.3
20260505230503 62 167 0.0 2.0 0.00 0.00 0.00 83 1017.4
20260505230004 62 167 0.0 2.0 0.00 0.00 0.00 83 1017.3
20260505225504 62 161 0.0 2.0 0.00 0.00 0.00 83 1017.4
20260505225216 62 161 0.0 2.0 0.00 0.00 0.00 83 1017.5
20260505224504 62 119 0.0 2.0 0.00 0.00 0.00 83 1017.5
20260505224003 62 97 0.0 2.0 0.00 0.00 0.00 83 1017.6
20260505223504 62 98 0.0 2.0 0.00 0.00 0.00 83 1017.5
20260505223004 62 113 0.0 2.0 0.00 0.00 0.00 83 1017.5
20260505222503 62 119 0.0 1.0 0.00 0.00 0.00 83 1017.5
20260505222214 62 115 1.0 3.0 0.00 0.00 0.00 83 1017.4
20260505221717 62 108 0.0 3.0 0.00 0.00 0.00 83 1017.6
20260505221004 62 61 0.0 2.0 0.00 0.00 0.00 83 1017.6
20260505220504 62 115 0.0 2.0 0.00 0.00 0.00 83 1017.7
20260505220005 62 103 1.0 3.0 0.00 0.00 0.00 83 1017.8
20260505215714 62 97 1.0 3.0 0.00 0.00 0.00 83 1017.6
20260505215003 62 71 1.0 3.0 0.00 0.00 0.00 83 1017.7
20260505214503 62 70 1.0 3.0 0.00 0.00 0.00 83 1017.6
20260505214213 62 76 1.0 3.0 0.00 0.00 0.00 83 1017.7
20260505213504 62 57 1.0 4.0 0.00 0.00 0.00 83 1017.8
20260505213213 62 46 1.0 4.0 0.00 0.00 0.00 83 1017.8
20260505212504 62 64 1.0 2.0 0.00 0.00 0.00 84 1018.0
20260505212003 62 84 1.0 4.0 0.00 0.00 0.00 84 1018.1
20260505211504 62 81 1.0 4.0 0.00 0.00 0.00 84 1018.1
20260505211003 62 63 1.0 3.0 0.00 0.00 0.00 84 1018.0
20260505210504 62 76 1.0 6.0 0.00 0.00 0.00 85 1018.2
20260505210004 62 74 1.0 6.0 0.00 0.00 0.00 85 1018.1
20260505205504 62 74 1.0 6.0 0.00 0.00 0.00 85 1018.1
20260505205003 62 94 1.0 6.0 0.00 0.00 0.00 85 1018.1
20260505204504 62 88 1.0 6.0 0.00 0.00 0.00 85 1018.1
20260505204218 62 76 1.0 6.0 0.00 0.00 0.00 85 1018.2
20260505203504 62 65 2.0 7.0 0.00 0.00 0.00 85 1018.3
20260505203003 62 84 2.0 7.0 0.00 0.00 0.00 86 1018.2
20260505202504 62 85 2.0 4.0 0.00 0.00 0.00 86 1018.2
20260505202004 62 74 2.0 8.0 0.00 0.00 0.00 86 1018.2
20260505201713 62 78 2.0 8.0 0.00 0.00 0.00 86 1018.3
20260505201216 62 78 2.0 5.0 0.00 0.00 0.00 86 1018.4
20260505200503 62 96 2.0 8.0 0.00 0.00 0.00 86 1018.2
20260505200003 62 99 2.0 8.0 0.00 0.00 0.00 86 1018.3
20260505195504 63 86 2.0 6.0 0.00 0.00 0.00 85 1018.3
20260505195003 63 70 2.0 6.0 0.00 0.00 0.00 85 1018.3
20260505194504 63 68 2.0 4.0 0.00 0.00 0.00 85 1018.1
20260505194003 63 80 3.0 8.0 0.00 0.00 0.00 85 1018.0
20260505193503 63 77 2.0 8.0 0.00 0.00 0.00 85 1018.2
20260505193003 63 75 2.0 10.0 0.00 0.00 0.00 84 1018.1
20260505192713 63 82 2.0 10.0 0.00 0.00 0.00 84 1018.2
20260505192003 63 89 2.0 8.0 0.00 0.00 0.00 84 1018.2
20260505191714 63 78 2.0 7.0 0.00 0.00 0.00 84 1018.2
20260505191004 63 55 2.0 10.0 0.00 0.00 0.00 84 1018.2
20260505190503 63 70 2.0 14.0 0.00 0.00 0.00 84 1018.1
20260505190003 63 67 2.0 14.0 0.00 0.00 0.00 84 1018.0
20260505185504 63 80 2.0 14.0 0.00 0.00 0.00 83 1017.7
20260505185213 63 86 2.0 6.0 0.00 0.00 0.00 83 1017.8
20260505184503 63 78 3.0 9.0 0.00 0.00 0.00 83 1017.7
20260505184004 63 87 3.0 9.0 0.00 0.00 0.00 83 1017.8
20260505183718 63 90 3.0 9.0 0.00 0.00 0.00 83 1017.8
20260505183004 63 78 2.0 4.0 0.00 0.00 0.00 83 1017.7
20260505182504 63 81 2.0 9.0 0.00 0.00 0.00 82 1017.7
20260505182003 63 82 3.0 9.0 0.00 0.00 0.00 82 1017.6
20260505181503 63 84 3.0 13.0 0.00 0.00 0.00 82 1017.7
20260505181003 63 78 2.0 13.0 0.00 0.00 0.00 83 1017.5
20260505180504 63 71 2.0 8.0 0.00 0.00 0.00 83 1017.6
20260505180003 63 84 3.0 10.0 0.00 0.00 0.00 83 1017.7
20260505175716 63 86 3.0 10.0 0.00 0.00 0.00 82 1017.5
20260505175003 63 67 4.0 8.0 0.00 0.00 0.00 82 1017.7
20260505174504 63 44 4.0 10.0 0.00 0.00 0.00 82 1017.8
20260505174215 64 41 4.0 10.0 0.00 0.00 0.00 82 1017.6
20260505173713 64 40 3.0 9.0 0.00 0.00 0.00 81 1017.8
20260505173216 64 54 3.0 7.0 0.00 0.00 0.00 80 1017.9
20260505172503 64 47 2.0 10.0 0.00 0.00 0.00 80 1017.5
20260505172003 64 45 2.0 10.0 0.00 0.00 0.00 80 1017.4
20260505171715 64 47 3.0 10.0 0.00 0.00 0.00 80 1017.4
20260505171003 64 56 2.0 7.0 0.00 0.00 0.00 80 1017.4
20260505170504 64 59 2.0 9.0 0.00 0.00 0.00 78 1017.4
20260505170214 64 62 2.0 9.0 0.00 0.00 0.00 77 1017.5
20260505165503 65 63 2.0 6.0 0.00 0.00 0.00 77 1017.4
20260505165004 65 64 3.0 11.0 0.00 0.00 0.00 75 1017.3
20260505164503 64 73 3.0 11.0 0.00 0.00 0.00 75 1017.7
20260505164216 65 76 3.0 9.0 0.00 0.00 0.00 75 1017.6
20260505163714 65 68 2.0 8.0 0.00 0.00 0.00 74 1017.5
20260505163003 65 73 2.0 8.0 0.00 0.00 0.00 74 1017.7
20260505162503 65 111 2.0 9.0 0.00 0.00 0.00 74 1017.6
20260505162003 65 101 3.0 9.0 0.00 0.00 0.00 74 1017.5
20260505161503 66 68 2.0 8.0 0.00 0.00 0.00 73 1017.6
20260505161003 65 65 2.0 6.0 0.00 0.00 0.00 73 1017.6
20260505160504 65 91 2.0 9.0 0.00 0.00 0.00 73 1017.5
20260505153003 66 88 2.0 9.0 0.00 0.00 0.00 72 1017.5
20260505152715 66 90 3.0 9.0 0.00 0.00 0.00 73 1017.4
20260505152004 67 95 2.0 8.0 0.00 0.00 0.00 70 1017.4
20260505151503 67 106 2.0 5.0 0.00 0.00 0.00 70 1017.7
20260505151004 67 98 4.0 10.0 0.00 0.00 0.00 69 1017.7
20260505150503 66 89 4.0 10.0 0.00 0.00 0.00 68 1017.5
20260505140504 68 93 3.0 8.0 0.00 0.00 0.00 65 1017.7